sat.trackr.live / text

‹ back to catalog

JILIN GAOFEN OBJECT C

NORAD 68693 · 2026-080C

PAYLOAD ACTIVE UNKNOWN

§ Identity

Operator
Country
PRC
Launch date
2026-04-14
Launch site
JSC
Launch vehicle
Mass (kg)
RCS (m²)

External: N2YO · Heavens-Above · Gunter

§ Orbital elements

Epoch: 2026-05-25T08:04:44.749920Z

Period
95.45 min
Inclination
97.6610°
Eccentricity
0.0015214
Mean motion
15.08642718 rev/d
Perigee alt
529.8 km
Apogee alt
550.9 km
Semi-major
6,918.5 km
B*
4.1289e-5
RAAN
220.8908°
Arg perigee
122.3594°
Mean anomaly
237.9109°
Rev number
621

§ Raw data

JILIN GAOFEN OBJECT C1 68693U 26080C   26145.33662905  .00000583  00000+0  41289-4 0  99932 68693  97.6610 220.8908 0015214 122.3594 237.9109 15.08642718  6213

JSON: /api/v1/satellites/68693 · /tle

For live sub-satellite position, see the globe view (requires WebGL).

§ Visibility from observer

Set your observer location to see the next 7 days of passes ≥ 10°. The values pass through the URL so the page stays shareable.

No JS? Fill the form by hand. The geolocation button needs JavaScript.